Flag for Micronesia Weather past 2 weeks in Kolonia, Ponape, Micronesia

Now
81 °F

Mostly cloudy.


Feels Like: 88 °F
Forecast: 80 / 83 °F
Wind: 7 mph from Northeast

Location: Pohnpei

Current Time: Feb 2, 2015 at 12:45:22 AM

Latest Report: Feb 1, 2015 at 11:52 PM


Visibility: 15 mi

Pressure: 29.80 "Hg

Humidity: 88%

Dew point: 77 °F

Location of KoloniaLocation

Historic Weather in Kolonia — Graph

°F

Kolonia temperature yesterday

Maximum temperature yesterday: 81 °F (at 10:53 PM)
Minimum temperature yesterday: 74 °F (at 3:50 AM)
Average temperature yesterday: 78 °F

Past Weeks' High & Low Weather Summary

 TemperatureHumidityPressure
High88 °F (Jan 23, 1:55 PM)99% (Jan 22, 2:50 AM)29.95 "Hg (Jan 22, 2:50 AM)
Low72 °F (Jan 25, 4:51 AM)57% (Jan 24, 4:52 AM)29.71 "Hg (Jan 29, 3:52 PM)
Average82 °F78%29.84 "Hg
* Reported Jan 17 11:50 PM — Feb 1 11:52 PM, Kolonia, Weather by CustomWeather, © 2014

Note: Actual official high and low records may vary slightly from our data, if they occured in-between our weather recording intervals... More about our weather records

Advertising

Kolonia weather history for previous 24 hours

 ConditionsComfort  
Time TempWeatherWind HumidityBarometerVisibility
11:52 PM
Feb 1
81 °FMostly cloudy.7 mph88%29.80 "Hg15 mi
10:53 PM81 °FMostly cloudy.7 mph88%29.80 "Hg15 mi
9:54 PM81 °FMostly cloudy.8 mph83%29.80 "Hg15 mi
8:52 PM80 °FMostly cloudy.5 mph86%29.80 "Hg15 mi
7:50 PM79 °FMostly cloudy.3 mph87%29.78 "Hg15 mi
6:51 PM80 °FMostly cloudy.3 mph89%29.77 "Hg15 mi
4:51 PM80 °FSprinkles. Mostly cloudy.6 mph85%29.75 "Hg15 mi
3:50 PM80 °FMostly cloudy.9 mph89%29.73 "Hg15 mi
12:50 PM80 °FMostly cloudy.3 mph90%29.79 "Hg15 mi
11:50 AM80 °FMostly cloudy.7 mph92%29.81 "Hg15 mi
10:50 AM80 °FMostly cloudy.5 mph90%29.83 "Hg15 mi
9:50 AM77 °FMostly cloudy.3 mph97%29.84 "Hg15 mi
8:55 AM76 °FSprinkles. Mostly cloudy.3 mph96%29.83 "Hg15 mi
7:55 AM74 °FMore clouds than sun.3 mph96%29.80 "Hg12 mi
6:50 AM74 °FSprinkles. Mostly cloudy.3 mph93%29.79 "Hg10 mi
4:50 AM75 °FMostly cloudy.5 mph93%29.77 "Hg12 mi
3:50 AM74 °FMostly cloudy.5 mph93%29.77 "Hg12 mi
2:53 AM75 °FMostly cloudy.5 mph92%29.78 "Hg10 mi
1:53 AM74 °FMostly cloudy.6 mph93%29.81 "Hg10 mi
12:52 AM76 °FMostly cloudy.6 mph93%29.84 "Hg10 mi
Weather by CustomWeather, © 2014

See weather overviewHow to use our weather pages